Volver al catálogo

AQUA

ActivoCienciaSSO
NORAD 27424·PAYLOAD·🇺🇸 United States

Lanzado May 4, 2002 desde Vandenberg Space Force Base

Loading…

Próximos Pases (próximas 24 horas)

TLE

ActualizadoSource: Space-Track

Época: Sep 14, 2026, 15:07 UTC

1 27424U 02022A   26257.63046319  .00000553  00000-0  11964-3 0  9996
2 27424  98.4390 228.7484 0001590  68.2494 346.9444 14.62201257296345

Sigue AQUA en tiempo real con AllMySat

Download on the App Store